| time (UTC) | temp F | wind direction | speed MPH | gust MPH | rain 1hr in | rain 24hr in | rain mn in | humidity % | barometer mb |
| 20260831040006 | 85 | 136 | 7.0 | 10.0 | 0.00 | 0.00 | 0.00 | 47 | 1008.7 |
| 20260831034501 | 86 | 160 | 5.0 | 9.0 | 0.00 | 0.00 | 0.00 | 45 | 1008.7 |
| 20260831033004 | 88 | 205 | 4.0 | 9.0 | 0.00 | 0.00 | 0.00 | 44 | 1008.6 |
| 20260831031604 | 88 | 150 | 5.0 | 13.0 | 0.00 | 0.00 | 0.00 | 43 | 1008.5 |
| 20260831030104 | 89 | 185 | 5.0 | 10.0 | 0.00 | 0.00 | 0.00 | 43 | 1008.6 |
| 20260831024559 | 89 | 121 | 6.0 | 13.0 | 0.00 | 0.00 | 0.00 | 42 | 1008.4 |
| 20260831023059 | 89 | 163 | 6.0 | 11.0 | 0.00 | 0.00 | 0.00 | 42 | 1008.3 |
| 20260831021559 | 90 | 223 | 6.0 | 10.0 | 0.00 | 0.00 | 0.00 | 41 | 1007.9 |
| 20260831020058 | 90 | 157 | 4.0 | 8.0 | 0.00 | 0.00 | 0.00 | 40 | 1007.8 |
| 20260831014557 | 91 | 180 | 4.0 | 9.0 | 0.00 | 0.00 | 0.00 | 39 | 1007.3 |
| 20260831013059 | 92 | 210 | 5.0 | 9.0 | 0.00 | 0.00 | 0.00 | 38 | 1007.3 |
| 20260831011557 | 93 | 186 | 4.0 | 10.0 | 0.00 | 0.00 | 0.00 | 37 | 1007.1 |
| 20260831004555 | 95 | 178 | 8.0 | 15.0 | 0.00 | 0.00 | 0.00 | 35 | 1006.9 |
| 20260831003155 | 97 | 181 | 5.0 | 12.0 | 0.00 | 0.00 | 0.00 | 34 | 1006.8 |
| 20260831001554 | 98 | 178 | 7.0 | 15.0 | 0.00 | 0.00 | 0.00 | 33 | 1007.0 |
| 20260831000100 | 98 | 175 | 8.0 | 19.0 | 0.00 | 0.00 | 0.00 | 33 | 1006.9 |
| 20260830234558 | 99 | 183 | 8.0 | 18.0 | 0.00 | 0.00 | 0.00 | 33 | 1006.9 |
| 20260830233101 | 100 | 197 | 8.0 | 19.0 | 0.00 | 0.00 | 0.00 | 33 | 1006.9 |
| 20260830231552 | 100 | 192 | 8.0 | 23.0 | 0.00 | 0.00 | 0.00 | 32 | 1006.8 |
| 20260830230051 | 101 | 202 | 8.0 | 25.0 | 0.00 | 0.00 | 0.00 | 33 | 1006.9 |
| 20260830224550 | 101 | 244 | 8.0 | 20.0 | 0.00 | 0.00 | 0.00 | 32 | 1006.5 |
| 20260830223050 | 102 | 180 | 12.0 | 23.0 | 0.00 | 0.00 | 0.00 | 32 | 1006.2 |
| 20260830221551 | 102 | 216 | 10.0 | 21.0 | 0.00 | 0.00 | 0.00 | 31 | 1006.4 |
| 20260830220100 | 102 | 248 | 10.0 | 20.0 | 0.00 | 0.00 | 0.00 | 31 | 1006.5 |
| 20260830214548 | 102 | 242 | 8.0 | 21.0 | 0.00 | 0.00 | 0.00 | 31 | 1006.5 |
| 20260830213046 | 102 | 169 | 10.0 | 22.0 | 0.00 | 0.00 | 0.00 | 31 | 1006.5 |
| 20260830211549 | 102 | 185 | 12.0 | 20.0 | 0.00 | 0.00 | 0.00 | 31 | 1006.6 |
| 20260830210044 | 102 | 235 | 13.0 | 23.0 | 0.00 | 0.00 | 0.00 | 30 | 1006.9 |
| 20260830204554 | 102 | 155 | 13.0 | 24.0 | 0.00 | 0.00 | 0.00 | 31 | 1006.9 |
| 20260830203039 | 102 | 209 | 8.0 | 19.0 | 0.00 | 0.00 | 0.00 | 32 | 1007.0 |
| 20260830201546 | 102 | 190 | 11.0 | 21.0 | 0.00 | 0.00 | 0.00 | 31 | 1007.1 |
| 20260830200043 | 102 | 279 | 11.0 | 23.0 | 0.00 | 0.00 | 0.00 | 31 | 1007.4 |
| 20260830194539 | 102 | 182 | 11.0 | 21.0 | 0.00 | 0.00 | 0.00 | 32 | 1007.5 |
| 20260830193033 | 102 | 245 | 9.0 | 20.0 | 0.00 | 0.00 | 0.00 | 33 | 1007.6 |
| 20260830191609 | 101 | 227 | 13.0 | 23.0 | 0.00 | 0.00 | 0.00 | 33 | 1007.8 |
| 20260830190033 | 100 | 243 | 12.0 | 26.0 | 0.00 | 0.00 | 0.00 | 34 | 1007.8 |
| 20260830184525 | 100 | 250 | 16.0 | 25.0 | 0.00 | 0.00 | 0.00 | 35 | 1008.2 |
| 20260830183019 | 99 | 271 | 13.0 | 25.0 | 0.00 | 0.00 | 0.00 | 36 | 1008.2 |
| 20260830181516 | 98 | 217 | 13.0 | 28.0 | 0.00 | 0.00 | 0.00 | 38 | 1008.5 |
| 20260830180015 | 98 | 203 | 13.0 | 23.0 | 0.00 | 0.00 | 0.00 | 38 | 1008.8 |
| 20260830174512 | 97 | 247 | 13.0 | 27.0 | 0.00 | 0.00 | 0.00 | 38 | 1009.0 |
| 20260830173010 | 96 | 225 | 9.0 | 22.0 | 0.00 | 0.00 | 0.00 | 40 | 1009.4 |
| 20260830171502 | 95 | 212 | 13.0 | 25.0 | 0.00 | 0.00 | 0.00 | 41 | 1009.5 |
| 20260830170059 | 94 | 216 | 11.0 | 24.0 | 0.00 | 0.00 | 0.00 | 42 | 1009.4 |
| 20260830164555 | 94 | 208 | 11.0 | 18.0 | 0.00 | 0.00 | 0.00 | 43 | 1009.9 |
| 20260830163053 | 92 | 195 | 12.0 | 18.0 | 0.00 | 0.00 | 0.00 | 45 | 1010.0 |
| 20260830161601 | 91 | 196 | 7.0 | 21.0 | 0.00 | 0.00 | 0.00 | 46 | 1010.0 |
| 20260830160045 | 89 | 211 | 11.0 | 23.0 | 0.00 | 0.00 | 0.00 | 47 | 1010.0 |
| 20260830154544 | 89 | 174 | 12.0 | 22.0 | 0.00 | 0.00 | 0.00 | 47 | 1009.9 |
| 20260830153040 | 88 | 229 | 10.0 | 21.0 | 0.00 | 0.00 | 0.00 | 49 | 1010.1 |
| 20260830151538 | 87 | 205 | 11.0 | 19.0 | 0.00 | 0.00 | 0.00 | 49 | 1010.1 |
| 20260830150042 | 87 | 242 | 12.0 | 20.0 | 0.00 | 0.00 | 0.00 | 48 | 1010.2 |
| 20260830144537 | 87 | 212 | 9.0 | 20.0 | 0.00 | 0.00 | 0.00 | 50 | 1010.3 |
| 20260830143030 | 85 | 187 | 8.0 | 18.0 | 0.00 | 0.00 | 0.00 | 53 | 1010.2 |
| 20260830141528 | 83 | 209 | 7.0 | 15.0 | 0.00 | 0.00 | 0.00 | 54 | 1010.2 |
| 20260830140026 | 83 | 192 | 6.0 | 13.0 | 0.00 | 0.00 | 0.00 | 55 | 1010.3 |
| 20260830134524 | 81 | 234 | 8.0 | 13.0 | 0.00 | 0.00 | 0.00 | 57 | 1010.5 |
| 20260830133023 | 80 | 196 | 6.0 | 13.0 | 0.00 | 0.00 | 0.00 | 58 | 1010.7 |
| 20260830131541 | 78 | 147 | 7.0 | 14.0 | 0.00 | 0.00 | 0.00 | 59 | 1010.7 |
| 20260830130023 | 78 | 189 | 7.0 | 14.0 | 0.00 | 0.00 | 0.00 | 60 | 1010.6 |
| 20260830124520 | 77 | 171 | 6.0 | 15.0 | 0.00 | 0.00 | 0.00 | 60 | 1010.7 |
| 20260830123019 | 77 | 173 | 8.0 | 16.0 | 0.00 | 0.00 | 0.00 | 60 | 1010.7 |
| 20260830121519 | 77 | 200 | 7.0 | 12.0 | 0.00 | 0.00 | 0.00 | 60 | 1010.6 |
| 20260830120016 | 77 | 113 | 5.0 | 14.0 | 0.00 | 0.00 | 0.00 | 60 | 1010.6 |
| 20260830114517 | 77 | 192 | 7.0 | 12.0 | 0.00 | 0.00 | 0.00 | 60 | 1010.4 |
| 20260830113017 | 77 | 177 | 6.0 | 13.0 | 0.00 | 0.00 | 0.00 | 59 | 1010.3 |
| 20260830111512 | 77 | 231 | 7.0 | 12.0 | 0.00 | 0.00 | 0.00 | 59 | 1010.2 |
| 20260830110009 | 78 | 162 | 7.0 | 10.0 | 0.00 | 0.00 | 0.00 | 59 | 1010.2 |
| 20260830104504 | 78 | 198 | 5.0 | 10.0 | 0.00 | 0.00 | 0.00 | 59 | 1010.5 |
| 20260830103003 | 78 | 190 | 5.0 | 11.0 | 0.00 | 0.00 | 0.00 | 59 | 1010.4 |
| 20260830101615 | 78 | 196 | 5.0 | 10.0 | 0.00 | 0.00 | 0.00 | 59 | 1010.5 |
| 20260830100058 | 78 | 193 | 5.0 | 10.0 | 0.00 | 0.00 | 0.00 | 58 | 1010.3 |
| 20260830094555 | 78 | 138 | 5.0 | 9.0 | 0.00 | 0.00 | 0.00 | 58 | 1010.3 |
| 20260830093052 | 78 | 193 | 6.0 | 9.0 | 0.00 | 0.00 | 0.00 | 57 | 1010.4 |
| 20260830091551 | 79 | 180 | 4.0 | 9.0 | 0.00 | 0.00 | 0.00 | 57 | 1010.2 |
| 20260830090050 | 79 | 184 | 4.0 | 8.0 | 0.00 | 0.00 | 0.00 | 57 | 1010.3 |
| 20260830084547 | 79 | 159 | 4.0 | 7.0 | 0.00 | 0.00 | 0.00 | 56 | 1010.2 |
| 20260830083050 | 80 | 177 | 4.0 | 8.0 | 0.00 | 0.00 | 0.00 | 55 | 1010.3 |
| 20260830081542 | 80 | 188 | 4.0 | 9.0 | 0.00 | 0.00 | 0.00 | 54 | 1010.1 |
| 20260830080043 | 81 | 193 | 5.0 | 11.0 | 0.00 | 0.00 | 0.00 | 54 | 1009.9 |
| 20260830074539 | 81 | 207 | 5.0 | 10.0 | 0.00 | 0.00 | 0.00 | 53 | 1009.8 |
| 20260830073037 | 81 | 193 | 6.0 | 15.0 | 0.00 | 0.00 | 0.00 | 53 | 1009.8 |
| 20260830071539 | 81 | 229 | 5.0 | 10.0 | 0.00 | 0.00 | 0.00 | 53 | 1009.9 |
| 20260830070052 | 82 | 198 | 5.0 | 14.0 | 0.00 | 0.00 | 0.00 | 52 | 1010.0 |
| 20260830064531 | 82 | 192 | 7.0 | 12.0 | 0.00 | 0.00 | 0.00 | 52 | 1010.0 |
| 20260830063033 | 82 | 204 | 7.0 | 12.0 | 0.00 | 0.00 | 0.00 | 52 | 1009.9 |
| 20260830061532 | 82 | 175 | 7.0 | 15.0 | 0.00 | 0.00 | 0.00 | 52 | 1010.1 |
| 20260830060042 | 82 | 159 | 6.0 | 12.0 | 0.00 | 0.00 | 0.00 | 52 | 1010.1 |
| 20260830054523 | 82 | 198 | 6.0 | 11.0 | 0.00 | 0.00 | 0.00 | 52 | 1010.2 |
| 20260830053022 | 83 | 182 | 7.0 | 14.0 | 0.00 | 0.00 | 0.00 | 52 | 1010.2 |
| 20260830051525 | 83 | 190 | 6.0 | 12.0 | 0.00 | 0.00 | 0.00 | 51 | 1010.3 |
| 20260830050016 | 83 | 199 | 6.0 | 10.0 | 0.00 | 0.00 | 0.00 | 51 | 1010.2 |
| 20260830044523 | 84 | 192 | 6.0 | 11.0 | 0.00 | 0.00 | 0.00 | 50 | 1009.9 |
| 20260830043014 | 84 | 179 | 6.0 | 11.0 | 0.00 | 0.00 | 0.00 | 49 | 1010.0 |
| 20260830041538 | 84 | 183 | 6.0 | 12.0 | 0.00 | 0.00 | 0.00 | 49 | 1010.0 |